Regional Weather Roundup
Issued by NWS State College, PA

Home | Current Version | Previous Version | Text Only | Print | Product List | Glossary On
Versions: 1 2 3 4 5 6 7 8 9 10 11 12 13 14 15 16 17 18 19 20 21 22 23 24 25 26 27 28 29 30 31 32 33 34 35 36 37 38 39 40 41 42 43 44 45 46 47 48 49 50
000
ASUS41 KCTP 120410
RWRCTP

REGIONAL WEATHER ROUNDUP
NATIONAL WEATHER SERVICE STATE COLLEGE PA
1200 AM EDT WED AUG 12 2020

Note: "fair" indicates few or no clouds below 12,000 feet with no
significant weather and/or obstructions to visibility.

* = STATION THAT DOES NOT REPORT PRECIPITATION /E.G. RAIN...SNOW...ETC/
    THUNDER OR FOG.

PAZ002>004-007>009-013>016-020>023-029>032-120500-
WESTERN PENNSYLVANIA

CITY           SKY/WX    TMP DP  RH WIND       PRES   REMARKS
ERIE           MOCLDY    76  62  62 N5        30.01R
MEADVILLE      PTCLDY    68  65  90 CALM      30.04R
FRANKLIN       PTCLDY    68  67  96 CALM      30.05R
NEW CASTLE     FAIR      69  67  93 CALM        N/A
BEAVER COUNTY  MOCLDY    74  68  81 CALM      30.03S
BUTLER         PTCLDY    71  68  90 CALM      30.03S
PITTSBURGH INT PTCLDY    76  66  71 NW3       30.02R
PITTSBURGH     CLEAR     76  67  73 NW5       30.02R
INDIANA*       CLOUDY    73  70  88 CALM      30.07R
LATROBE          N/A     75  70  83 S5        30.02S
WASHINGTON CO* MOCLDY    70  69  97 S3        30.06R
$$

PAZ004>006-010>012-017>019-024>028-033>037-041-042-045-046-049>053-120500-
CENTRAL PENNSYLVANIA

CITY           SKY/WX    TMP DP  RH WIND       PRES   REMARKS
BRADFORD       CLEAR     66  62  87 NW3       30.06R
ST MARYS       MOCLDY    68  64  88 CALM      30.08
DUBOIS         CLEAR     69  65  86 CALM      30.04R
CLEARFIELD     PTCLDY    71  66  84 CALM      30.04R HAZE
JOHNSTOWN      MOCLDY    73  65  75 W5        30.07R
SOMERSET       FAIR      68  64  88 SW10      30.09R
ALTOONA        CLEAR     73  67  81 SW6       30.03R
STATE COLLEGE  PTCLDY    78  66  66 CALM      30.01R
REEDSVILLE     NOT AVBL
WELLSBORO      CLOUDY    72  64  78 N3        30.04R
WILLIAMSPORT   MOCLDY    78  69  73 NE5       29.95R
SELINSGROVE    PTCLDY    76  71  85 CALM      29.96R
FT INDIANTOWN  PTCLDY    72  70  94 MISG      29.97R
CAPITAL CITY   MOCLDY    80  71  74 NW3       29.96R
HARRISBURG     PTCLDY    80  72  76 CALM      29.95R
YORK           PTCLDY    77  71  82 CALM      29.97R
$$

PAZ038>040-043-044-047-048-054-055-060>062-067>071-120500-
EASTERN PENNSYLVANIA

CITY           SKY/WX    TMP DP  RH WIND       PRES   REMARKS
TOWANDA        PTCLDY    73  73 100 CALM      30.00S
SCRANTON       PTCLDY    79  69  71 N7        29.98R
MOUNT POCONO   CLEAR     72  68  87 SW6       30.03S
HAZLETON       FAIR      75  68  78 CALM      30.04S
LEHIGHTON      MOCLDY    70  70 100 CALM      29.98S FOG
ALLENTOWN      CLEAR     77  70  79 CALM      29.96R
QN CITY/ALNTWN FAIR      79  73  83 CALM      29.98R
QUAKERTOWN*    CLEAR     77  75  94 CALM      29.98S
PERKASIE*      CLEAR     75  75 100 CALM      29.99R
DOYLESTOWN     PTCLDY    80  73  79 S5        29.97R
READING        CLEAR     78  72  81 CALM      29.95R
LANCASTER      CLEAR     76  71  85 CALM      29.97R
COATESVILLE    CLEAR     75  73  94 CALM      30.00R
WEST CHESTER   PTCLDY    79  73  83 CALM      29.99R
POTTSTOWN      CLEAR     76  73  91 CALM      29.99R
BLUE BELL      PTCLDY    77  75  94 CALM      29.98R
NORTH PHILA    PTCLDY    79  76  90 S3        29.98R
PHILADELPHIA   PTCLDY    79  76  90 S6        29.97R
$$




USA.gov is the U.S. government's official web portal to all federal, state and local government web resources and services.